Temp
-14 -14 -14 -14 -14 -14 -14 -14 -14 -14 -13 -13 -13 -13 -13 -13 -13 -13 -13 -13 -13 -13 -14 -14 -13 -14 -14 -14 -14 -14 -14 -14 -15 -16 -15 -14 -14 -14
-14 -14 -14 -14 -14 -14 -14 -14 -14 -14 -14 -14 -14 -14 -14 -14 -14 -14 -14 -13 -13 -13 -13 -14 -14 -14 -14 -14 -14 -14 -14 -14 -14 -14 -14 -14 -14 -14
-15 -14 -14 -14 -14 -14 -15 -15 -15 -15 -14 -15 -14 -14 -14 -14 -14 -14 -14 -14 -14 -13 -13 -13 -14 -14 -14 -14 -14 -14 -14 -14 -14 -14 -14 -14 -14 -14
-15 -15 -15 -15 -15 -15 -15 -15 -16 -15 -15 -15 -15 -15 -15 -14 -14 -14 -14 -14 -14 -14 -14 -13 -13 -14 -14 -14 -14 -14 -14 -14 -14 -14 -14 -14 -14 -14
-16 -16 -16 -16 -16 -16 -16 -16 -16 -16 -16 -16 -16 -16 -15 -15 -15 -15 -15 -15 -15 -15 -15 -14 -14 -14 -14 -14 -14 -14 -14 -14 -14 -14 -14 -14 -14 -14
-17 -17 -17 -17 -17 -17 -17 -17 -17 -17 -17 -17 -16 -17 -16 -16 -16 -16 -15 -15 -15 -15 -15 -15 -15 -15 -15 -15 -15 -15 -15 -15 -14 -14 -14 -14 -14 -14
-18 -18 -19 -19 -19 -19 -18 -18 -18 -18 -18 -18 -18 -18 -18 -18 -17 -17 -16 -16 -16 -16 -16 -16 -16 -16 -16 -15 -15 -15 -15 -15 -15 -15 -15 -15 -15 -15
-19 -20 -20 -20 -20 -20 -20 -20 -19 -19 -19 -19 -19 -19 -19 -19 -19 -19 -18 -17 -17 -17 -17 -16 -17 -17 -17 -17 -17 -16 -16 -16 -16 -16 -16 -16 -16 -16
-20 -20 -20 -20 -20 -20 -20 -21 -20 -20 -20 -20 -20 -20 -20 -20 -19 -19 -19 -19 -19 -18 -18 -18 -18 -18 -18 -18 -18 -18 -17 -17 -17 -17 -17 -17 -17 -16
-21 -21 -21 -21 -21 -21 -21 -21 -21 -21 -21 -21 -21 -21 -21 -21 -20 -20 -20 -20 -20 -20 -19 -19 -19 -19 -19 -19 -19 -19 -19 -19 -19 -18 -18 -18 -18 -18
-22 -22 -22 -22 -22 -23 -22 -22 -22 -22 -22 -22 -22 -22 -22 -22 -21 -21 -20 -20 -20 -20 -20 -20 -20 -20 -19 -19 -20 -20 -20 -20 -20 -20 -20 -19 -19 -19
-24 -24 -24 -24 -24 -24 -24 -24 -24 -24 -24 -24 -24 -24 -24 -23 -23 -23 -22 -22 -22 -22 -21 -21 -21 -21 -21 -21 -21 -21 -21 -21 -21 -20 -20 -20 -20 -20
-26 -26 -26 -26 -27 -26 -27 -27 -27 -27 -27 -27 -27 -27 -27 -26 -26 -26 -26 -25 -24 -24 -23 -23 -23 -23 -23 -23 -24 -23 -23 -23 -22 -22 -22 -22 -22 -22
-29 -29 -28 -28 -28 -28 -28 -28 -28 -28 -28 -28 -28 -28 -28 -28 -28 -28 -28 -28 -27 -26 -26 -26 -26 -26 -26 -25 -25 -25 -25 -25 -25 -25 -25 -24 -24 -24
-30 -30 -30 -30 -30 -30 -30 -30 -29 -29 -29 -29 -29 -29 -29 -29 -29 -29 -29 -29 -29 -28 -28 -27 -28 -28 -28 -27 -27 -26 -26 -26 -26 -26 -26 -26 -26 -26
-33 -33 -33 -33 -33 -33 -32 -32 -32 -32 -31 -31 -31 -31 -31 -30 -31 -30 -30 -30 -29 -29 -29 -29 -28 -28 -28 -28 -27 -27 -27 -27 -27 -27 -27 -27 -27 -27
-35 -35 -35 -35 -35 -34 -34 -33 -33 -33 -32 -32 -32 -32 -32 -33 -32 -31 -31 -30 -30 -29 -29 -29 -29 -29 -29 -29 -28 -28 -28 -28 -28 -28 -28 -28 -27 -27
-35 -35 -35 -35 -35 -35 -34 -34 -34 -34 -33 -33 -33 -33 -33 -33 -33 -32 -32 -31 -31 -30 -30 -30 -30 -30 -30 -29 -29 -29 -29 -29 -29 -29 -29 -28 -28 -28
-35 -36 -36 -36 -35 -35 -35 -35 -35 -35 -35 -35 -35 -35 -35 -34 -33 -34 -33 -33 -32 -32 -32 -31 -31 -31 -31 -30 -30 -30 -30 -30 -30 -30 -30 -30 -29 -29
-35 -35 -36 -36 -36 -36 -36 -36 -35 -35 -36 -36 -36 -35 -36 -35 -35 -35 -34 -34 -33 -33 -33 -32 -32 -32 -31 -31 -31 -31 -31 -31 -31 -30 -30 -30 -30 -30
-36 -36 -36 -36 -36 -36 -36 -36 -36 -36 -36 -36 -36 -36 -36 -36 -36 -35 -35 -34 -34 -33 -33 -33 -33 -32 -32 -32 -31 -32 -32 -31 -31 -31 -31 -31 -31 -31
-36 -36 -36 -36 -36 -36 -36 -36 -36 -36 -36 -36 -36 -37 -37 -36 -36 -36 -35 -35 -35 -34 -34 -34 -34 -33 -33 -33 -32 -32 -32 -32 -32 -32 -32 -32 -31 -31
-36 -36 -36 -36 -36 -36 -36 -36 -36 -36 -37 -37 -37 -37 -37 -37 -36 -36 -36 -35 -35 -35 -35 -35 -35 -34 -34 -33 -33 -33 -33 -33 -33 -33 -33 -33 -33 -34
Height
5689 5687 5685 5683 5681 5679 5678 5676 5676 5675 5674 5673 5672 5671 5670 5670 5670 5669 5668 5667 5666 5666 5667 5669 5670 5669 5670 5673 5676 5679 5681 5682 5684 5687 5692 5695 5697 5700
5677 5675 5673 5671 5669 5668 5666 5665 5663 5662 5663 5661 5661 5661 5660 5660 5660 5660 5660 5660 5659 5659 5658 5659 5661 5663 5665 5666 5667 5669 5673 5675 5678 5682 5684 5686 5688 5692
5664 5662 5659 5656 5655 5653 5653 5651 5649 5648 5649 5648 5647 5648 5648 5648 5648 5648 5648 5650 5651 5651 5651 5650 5650 5651 5654 5656 5658 5660 5662 5664 5667 5671 5675 5678 5680 5683
5647 5645 5642 5640 5638 5636 5635 5633 5633 5632 5632 5633 5632 5632 5633 5633 5635 5635 5634 5634 5637 5639 5640 5641 5641 5642 5643 5644 5646 5648 5650 5654 5656 5659 5662 5665 5667 5671
5629 5627 5624 5622 5619 5617 5616 5615 5615 5614 5614 5615 5616 5615 5616 5615 5617 5619 5620 5620 5620 5622 5625 5627 5628 5629 5630 5632 5634 5636 5639 5642 5644 5646 5649 5652 5655 5658
5609 5607 5605 5602 5600 5598 5598 5597 5595 5594 5594 5594 5595 5595 5595 5595 5597 5598 5600 5603 5604 5605 5605 5609 5612 5614 5616 5618 5621 5623 5625 5627 5630 5632 5635 5637 5640 5643
5589 5586 5584 5581 5579 5577 5576 5576 5575 5575 5575 5574 5574 5575 5575 5575 5577 5577 5579 5579 5583 5585 5586 5588 5591 5595 5597 5598 5600 5603 5606 5609 5613 5616 5619 5622 5625 5628
5567 5564 5561 5560 5558 5555 5553 5553 5553 5553 5553 5552 5553 5554 5555 5555 5554 5556 5557 5558 5561 5563 5564 5566 5568 5571 5574 5578 5580 5582 5585 5588 5591 5595 5599 5603 5607 5611
5543 5540 5538 5536 5533 5532 5531 5530 5529 5528 5529 5528 5531 5532 5531 5531 5533 5535 5535 5536 5537 5540 5542 5545 5547 5548 5551 5554 5556 5561 5564 5567 5570 5574 5578 5582 5587 5591
5517 5514 5511 5510 5507 5503 5503 5504 5503 5504 5503 5501 5503 5506 5506 5506 5508 5511 5512 5513 5515 5518 5519 5523 5523 5526 5528 5530 5533 5537 5541 5545 5548 5552 5556 5560 5564 5569
5490 5486 5482 5480 5478 5473 5471 5472 5474 5476 5472 5473 5475 5478 5480 5480 5481 5484 5488 5487 5491 5493 5496 5501 5501 5503 5505 5508 5509 5512 5515 5520 5525 5530 5533 5537 5541 5545
5459 5456 5452 5448 5446 5443 5439 5441 5442 5445 5441 5441 5445 5447 5449 5453 5453 5455 5459 5461 5464 5466 5472 5475 5476 5479 5483 5485 5485 5486 5491 5494 5499 5503 5509 5513 5517 5523
5425 5424 5422 5415 5412 5411 5410 5410 5411 5412 5411 5410 5414 5418 5421 5423 5426 5427 5430 5433 5437 5442 5446 5449 5451 5455 5459 5463 5465 5468 5469 5470 5473 5477 5481 5485 5490 5496
5396 5395 5393 5390 5385 5382 5382 5384 5384 5382 5383 5385 5387 5391 5394 5398 5400 5402 5405 5408 5412 5419 5419 5425 5429 5432 5434 5437 5444 5448 5449 5451 5454 5456 5458 5460 5463 5468
5367 5365 5363 5361 5360 5358 5357 5356 5355 5355 5356 5358 5361 5364 5368 5372 5374 5377 5381 5386 5390 5395 5399 5403 5409 5410 5412 5418 5421 5425 5428 5431 5434 5436 5438 5441 5445 5448
5341 5339 5338 5336 5334 5333 5333 5333 5331 5330 5331 5335 5337 5339 5342 5347 5350 5354 5359 5364 5369 5375 5379 5382 5385 5388 5392 5396 5399 5406 5408 5411 5410 5412 5415 5419 5424 5428
5321 5320 5319 5316 5314 5313 5312 5313 5312 5311 5310 5313 5315 5317 5320 5325 5329 5333 5338 5341 5347 5353 5357 5361 5363 5367 5372 5376 5380 5384 5387 5390 5390 5389 5389 5396 5403 5406
5306 5305 5304 5301 5299 5297 5296 5295 5294 5293 5293 5292 5295 5298 5302 5305 5309 5313 5316 5322 5328 5331 5336 5341 5343 5346 5351 5358 5361 5364 5366 5368 5367 5368 5372 5376 5383 5380
5293 5291 5290 5289 5287 5285 5283 5282 5281 5280 5278 5277 5278 5281 5283 5286 5289 5293 5297 5302 5307 5312 5317 5320 5324 5328 5331 5339 5340 5341 5346 5348 5348 5350 5350 5351 5358 5362
5282 5280 5279 5278 5276 5274 5273 5271 5270 5269 5267 5266 5266 5266 5268 5270 5273 5276 5280 5284 5288 5293 5297 5302 5305 5308 5312 5316 5320 5324 5326 5326 5325 5328 5329 5330 5335 5337
5273 5271 5269 5268 5266 5264 5262 5261 5259 5258 5257 5256 5255 5255 5256 5257 5260 5262 5265 5268 5272 5276 5281 5284 5286 5287 5292 5296 5304 5307 5305 5305 5307 5308 5307 5307 5311 5313
5264 5262 5260 5258 5256 5254 5252 5250 5248 5247 5246 5246 5246 5245 5246 5246 5248 5250 5252 5255 5258 5262 5266 5268 5269 5272 5274 5278 5284 5288 5287 5287 5286 5286 5287 5287 5288 5288
5254 5253 5251 5249 5247 5245 5242 5240 5238 5237 5235 5235 5235 5235 5235 5235 5237 5239 5241 5243 5246 5249 5251 5254 5255 5258 5261 5263 5266 5269 5270 5270 5268 5269 5271 5266 5264 5264
Wind_Speed
47 48 49 49 48 47 46 46 45 43 41 40 40 39 38 37 36 32 30 30 27 26 24 24 24 25 24 25 25 27 29 30 30 30 33 34 34 35
53 55 55 55 54 53 51 50 49 48 47 47 45 44 42 41 40 41 39 36 35 34 33 30 29 30 31 31 30 30 31 31 34 36 36 36 36 37
59 60 61 61 61 60 58 57 55 53 52 52 52 50 49 48 45 45 46 45 44 42 41 40 37 35 36 37 37 38 37 36 37 38 39 40 40 41
64 64 64 65 65 65 65 63 61 61 59 57 57 57 56 55 54 52 51 51 51 50 50 49 48 47 44 42 41 41 42 43 43 44 44 44 44 45
69 69 69 70 70 69 69 68 65 64 63 62 61 61 61 62 61 59 59 58 57 56 56 57 56 56 55 53 50 48 48 48 47 47 46 46 47 48
72 71 71 71 71 71 69 67 66 66 65 64 64 64 63 62 64 65 65 64 65 64 63 61 61 62 63 62 61 59 57 55 54 54 53 51 49 49
73 72 71 70 71 70 70 68 68 67 67 67 67 66 64 63 62 65 66 68 67 68 69 68 66 66 66 67 67 66 66 64 63 61 59 58 57 56
74 74 74 73 72 72 72 72 71 71 69 70 70 69 67 67 65 64 66 68 68 69 70 71 70 69 69 69 70 71 71 70 69 68 67 65 64 63
79 80 79 78 78 78 77 77 77 76 75 75 73 72 72 71 71 69 69 68 69 69 69 71 71 70 71 69 70 71 71 72 73 72 72 72 71 71
85 85 85 84 84 85 84 83 83 82 81 81 79 77 77 76 76 75 74 75 73 71 72 73 73 72 72 71 70 69 69 70 72 73 73 73 74 75
89 89 90 90 89 90 91 90 88 87 88 86 85 83 82 82 82 81 80 80 79 78 77 75 75 76 77 76 76 74 73 72 72 71 72 73 74 75
91 90 90 90 90 91 93 92 91 90 90 90 89 87 86 85 84 85 85 85 85 84 82 81 82 80 79 80 80 80 79 79 77 77 76 75 74 74
88 87 89 91 92 92 91 91 89 87 85 83 82 80 78 77 77 76 77 79 81 82 82 82 80 81 81 77 75 75 75 78 78 78 78 78 77 76
80 80 80 81 83 84 84 84 82 82 81 80 79 76 74 73 72 71 71 71 73 73 72 71 70 69 69 71 73 70 69 69 70 70 69 70 71 72
79 79 78 78 79 79 79 80 81 82 82 81 79 77 75 72 69 67 67 66 71 65 65 69 61 61 67 67 67 68 68 67 67 66 66 65 65 65
67 65 63 64 64 64 62 61 61 64 67 68 67 67 67 66 66 63 64 67 68 67 67 61 61 65 66 66 65 65 66 66 67 67 68 69 67 67
60 58 55 54 54 54 54 54 55 57 59 57 55 55 58 60 59 60 63 70 70 69 67 62 62 64 65 65 64 64 68 69 69 68 72 73 71 71
50 48 45 44 43 44 44 43 44 46 48 51 53 53 52 54 64 64 63 62 61 63 66 63 67 69 66 64 66 67 66 68 68 66 70 71 68 70
41 40 39 38 39 38 36 36 36 37 40 41 43 43 47 49 52 58 63 65 63 63 65 67 68 64 63 62 66 69 69 69 68 66 68 71 73 74
35 34 34 36 36 35 34 34 35 34 35 36 38 38 38 42 45 47 49 53 56 59 59 59 62 64 65 64 63 64 64 64 65 67 69 73 73 71
33 32 31 31 31 32 33 33 34 34 33 32 32 32 34 37 40 43 44 46 49 51 51 52 54 57 58 60 58 57 61 63 64 66 67 69 68 67
31 31 32 33 34 35 34 35 34 33 33 33 33 33 32 29 32 38 41 41 41 42 44 46 49 51 53 54 54 53 56 58 60 62 64 67 69 73
31 31 31 31 30 29 29 28 27 28 29 31 33 35 35 34 32 31 33 37 39 40 42 44 45 47 49 51 52 52 53 55 58 59 59 61 61 53
Wind_Direction
292 292 291 292 292 292 292 292 291 289 287 285 284 283 280 277 274 270 270 275 273 270 264 259 260 262 259 255 253 252 247 245 244 242 243 241 239 242
292 291 291 290 290 289 288 286 285 284 283 281 279 278 277 276 273 269 267 264 266 269 268 262 256 254 255 257 255 253 250 248 249 248 245 245 245 246
289 290 289 288 288 287 286 284 281 279 278 277 277 275 273 272 270 268 265 262 260 260 261 263 261 256 252 250 251 252 252 250 248 247 249 250 251 252
288 287 286 285 284 283 281 280 279 278 277 274 273 272 272 269 267 266 265 264 261 257 256 257 259 259 256 253 251 252 252 250 249 250 250 249 249 249
286 285 284 283 282 281 281 280 280 279 277 276 274 271 269 269 267 265 264 263 263 262 259 256 256 256 257 257 254 250 249 251 251 251 251 251 250 252
284 283 282 282 281 281 280 279 278 277 276 275 273 272 269 266 266 265 264 262 262 261 261 260 258 256 256 256 256 255 254 250 248 248 249 251 252 253
283 282 281 279 279 279 279 277 276 275 274 273 271 270 269 268 266 264 263 261 260 260 260 260 259 258 256 256 256 256 255 255 254 253 252 250 249 250
282 281 281 280 279 278 277 276 275 273 271 270 268 268 268 267 264 263 263 262 261 260 259 258 258 259 259 258 256 255 255 255 254 254 253 253 252 252
283 282 281 280 279 277 275 274 273 272 271 269 267 266 266 266 264 263 263 261 261 260 261 260 258 258 258 258 257 256 255 254 254 254 253 253 252 251
282 280 278 277 276 275 273 272 272 270 270 268 267 265 264 263 263 262 262 262 261 261 259 259 260 259 259 259 258 258 257 256 255 254 253 253 252 252
278 277 276 275 274 272 271 270 268 267 267 266 265 263 263 262 261 260 260 259 259 259 259 258 259 260 260 260 261 261 260 258 257 255 255 255 255 254
277 276 274 272 270 269 268 268 268 267 267 267 266 265 264 262 263 262 260 259 258 257 257 258 258 258 258 259 261 261 261 261 261 260 259 258 256 255
274 271 268 269 269 268 269 269 270 270 270 270 268 267 267 266 265 265 263 262 261 261 260 260 261 261 261 262 262 263 263 264 264 264 263 262 261 260
278 277 275 273 273 273 272 272 271 271 270 270 270 268 268 267 267 265 264 265 264 263 262 263 264 263 262 262 263 262 263 263 264 264 265 265 265 264
280 278 276 275 273 272 273 272 271 270 269 269 269 269 268 267 264 260 259 256 259 262 259 259 261 260 260 260 259 261 261 262 261 261 261 261 261 261
284 284 283 281 279 277 275 274 273 273 271 269 268 267 266 263 260 260 255 251 253 255 253 256 258 260 260 260 257 259 261 259 260 261 262 261 260 259
285 286 286 286 283 280 277 276 274 272 271 269 266 262 258 253 254 253 253 254 250 250 250 249 254 257 257 259 259 259 262 260 259 259 260 258 258 260
288 289 287 286 285 282 279 278 277 276 274 270 266 264 259 255 251 252 252 252 253 253 254 255 254 255 255 256 258 257 259 260 260 260 263 264 261 262
292 290 286 284 286 287 284 281 280 280 278 276 274 265 259 257 254 252 252 256 255 255 258 258 260 259 260 260 259 261 262 262 260 265 268 269 267 266
293 290 286 287 287 286 285 283 282 282 281 277 274 273 268 260 254 254 253 252 253 255 256 257 258 258 259 260 260 262 263 263 265 266 269 268 266 264
290 290 289 288 287 286 285 284 283 282 283 281 279 276 273 267 263 259 257 254 252 251 253 255 256 257 258 257 257 258 261 262 263 264 265 267 269 270
288 288 288 290 289 289 288 285 284 282 280 278 277 277 277 272 265 262 261 258 255 254 255 256 257 257 259 260 260 260 261 263 265 267 270 272 274 275
291 292 292 292 292 291 290 290 288 285 282 278 274 272 271 271 268 262 257 256 256 256 256 257 257 258 260 262 262 263 265 267 268 270 274 275 274 272